| time (UTC) | temp F | wind direction | speed knots | gust knots | rain 1hr in | rain 24hr in | rain mn in | humidity % | barometer mb |
| 20260905073917 | 67 | 0.0 | 0.0 | 0.00 | 0.00 | 0.00 | 91 | 1013.2 | |
| 20260905073417 | 67 | 125 | 0.9 | 0.9 | 0.00 | 0.00 | 0.00 | 91 | 1013.2 |
| 20260905072917 | 66 | 0.0 | 0.0 | 0.00 | 0.00 | 0.00 | 91 | 1013.2 | |
| 20260905072417 | 66 | 0.0 | 0.0 | 0.00 | 0.00 | 0.00 | 91 | 1013.1 | |
| 20260905071917 | 66 | 0.0 | 0.0 | 0.00 | 0.00 | 0.00 | 90 | 1013.0 | |
| 20260905071416 | 67 | 0.0 | 0.0 | 0.00 | 0.00 | 0.00 | 90 | 1013.1 | |
| 20260905070917 | 67 | 0.0 | 0.0 | 0.00 | 0.00 | 0.00 | 90 | 1013.1 | |
| 20260905070437 | 67 | 0.0 | 0.0 | 0.00 | 0.00 | 0.00 | 90 | 1013.1 | |
| 20260905065915 | 66 | 0.0 | 0.0 | 0.00 | 0.00 | 0.00 | 90 | 1013.1 | |
| 20260905065437 | 66 | 0.0 | 0.0 | 0.00 | 0.00 | 0.00 | 89 | 1013.0 | |
| 20260905064917 | 67 | 0.0 | 0.0 | 0.00 | 0.00 | 0.00 | 89 | 1013.0 | |
| 20260905064437 | 67 | 0.0 | 0.0 | 0.00 | 0.00 | 0.00 | 89 | 1013.0 | |
| 20260905063917 | 67 | 0.0 | 0.0 | 0.00 | 0.00 | 0.00 | 89 | 1013.1 | |
| 20260905063437 | 67 | 0.0 | 0.0 | 0.00 | 0.00 | 0.00 | 89 | 1013.1 | |
| 20260905062917 | 67 | 0.0 | 0.0 | 0.00 | 0.00 | 0.00 | 89 | 1013.0 | |
| 20260905062415 | 67 | 0.0 | 0.0 | 0.00 | 0.00 | 0.00 | 88 | 1013.0 | |
| 20260905061917 | 68 | 0.0 | 0.0 | 0.00 | 0.00 | 0.00 | 88 | 1013.1 | |
| 20260905061417 | 68 | 0.0 | 0.0 | 0.00 | 0.00 | 0.00 | 88 | 1013.0 | |
| 20260905060917 | 68 | 0.0 | 0.0 | 0.00 | 0.00 | 0.00 | 87 | 1013.0 | |
| 20260905060415 | 68 | 0.0 | 0.0 | 0.00 | 0.00 | 0.00 | 87 | 1012.9 | |
| 20260905055917 | 68 | 0.0 | 0.0 | 0.00 | 0.00 | 0.00 | 87 | 1012.9 | |
| 20260905055417 | 68 | 0.0 | 0.0 | 0.00 | 0.00 | 0.00 | 87 | 1013.0 | |
| 20260905054917 | 69 | 260 | 0.9 | 1.7 | 0.00 | 0.00 | 0.00 | 87 | 1012.9 |
| 20260905054417 | 69 | 0.0 | 0.0 | 0.00 | 0.00 | 0.00 | 87 | 1012.9 | |
| 20260905053917 | 69 | 305 | 3.5 | 4.3 | 0.00 | 0.00 | 0.00 | 87 | 1012.8 |
| 20260905053417 | 69 | 0.0 | 0.0 | 0.00 | 0.00 | 0.00 | 87 | 1012.8 | |
| 20260905052917 | 69 | 283 | 0.9 | 2.6 | 0.00 | 0.00 | 0.00 | 87 | 1012.8 |
| 20260905052417 | 69 | 283 | 0.9 | 3.5 | 0.00 | 0.00 | 0.00 | 87 | 1012.8 |
| 20260905051917 | 69 | 0.0 | 1.7 | 0.00 | 0.00 | 0.00 | 87 | 1012.8 | |
| 20260905051417 | 69 | 283 | 0.9 | 1.7 | 0.00 | 0.00 | 0.00 | 87 | 1012.9 |
| 20260905050937 | 69 | 0.0 | 0.9 | 0.00 | 0.00 | 0.00 | 86 | 1012.9 | |
| 20260905050417 | 69 | 283 | 0.9 | 2.6 | 0.00 | 0.00 | 0.00 | 87 | 1013.0 |
| 20260905045917 | 69 | 260 | 2.6 | 4.3 | 0.00 | 0.00 | 0.00 | 86 | 1012.9 |
| 20260905045437 | 69 | 305 | 1.7 | 2.6 | 0.00 | 0.00 | 0.00 | 86 | 1012.9 |
| 20260905044937 | 69 | 260 | 0.9 | 1.7 | 0.00 | 0.00 | 0.00 | 86 | 1012.8 |
| 20260905044417 | 69 | 283 | 1.7 | 2.6 | 0.00 | 0.00 | 0.00 | 85 | 1012.8 |
| 20260905043917 | 69 | 305 | 2.6 | 3.5 | 0.00 | 0.00 | 0.00 | 85 | 1012.7 |
| 20260905043417 | 69 | 283 | 1.7 | 2.6 | 0.00 | 0.00 | 0.00 | 85 | 1012.7 |
| 20260905042917 | 69 | 0.0 | 0.9 | 0.00 | 0.00 | 0.00 | 84 | 1012.6 | |
| 20260905042417 | 69 | 260 | 0.9 | 1.7 | 0.00 | 0.00 | 0.00 | 84 | 1012.5 |
| 20260905041917 | 69 | 0.0 | 1.7 | 0.00 | 0.00 | 0.00 | 84 | 1012.6 | |
| 20260905041437 | 69 | 0.0 | 0.9 | 0.00 | 0.00 | 0.00 | 84 | 1012.5 | |
| 20260905040917 | 69 | 260 | 2.6 | 4.3 | 0.00 | 0.00 | 0.00 | 84 | 1012.4 |
| 20260905040417 | 70 | 260 | 0.9 | 1.7 | 0.00 | 0.00 | 0.00 | 84 | 1012.3 |
| 20260905035937 | 70 | 260 | 1.7 | 2.6 | 0.00 | 0.00 | 0.00 | 84 | 1012.3 |
| 20260905035517 | 70 | 283 | 2.6 | 3.5 | 0.00 | 0.00 | 0.00 | 83 | 1012.3 |
| 20260905034917 | 70 | 283 | 1.7 | 3.5 | 0.00 | 0.00 | 0.00 | 83 | 1012.1 |
| 20260905034417 | 70 | 260 | 1.7 | 2.6 | 0.00 | 0.00 | 0.00 | 83 | 1012.1 |
| 20260905033917 | 70 | 283 | 3.5 | 5.2 | 0.00 | 0.00 | 0.00 | 83 | 1012.1 |
| 20260905033417 | 70 | 260 | 3.5 | 5.2 | 0.00 | 0.00 | 0.00 | 83 | 1012.0 |
| 20260905033017 | 70 | 283 | 3.5 | 7.0 | 0.00 | 0.00 | 0.00 | 82 | 1012.0 |
| 20260905032417 | 70 | 283 | 1.7 | 4.3 | 0.00 | 0.00 | 0.00 | 82 | 1012.0 |
| 20260905031917 | 70 | 283 | 3.5 | 6.1 | 0.00 | 0.00 | 0.00 | 82 | 1011.9 |
| 20260905031437 | 70 | 283 | 3.5 | 4.3 | 0.00 | 0.00 | 0.00 | 82 | 1011.9 |
| 20260905030917 | 70 | 283 | 3.5 | 5.2 | 0.00 | 0.00 | 0.00 | 81 | 1011.9 |
| 20260905030417 | 70 | 260 | 1.7 | 1.7 | 0.00 | 0.00 | 0.00 | 81 | 1011.8 |
| 20260905025917 | 71 | 260 | 4.3 | 7.0 | 0.00 | 0.00 | 0.00 | 80 | 1011.7 |
| 20260905025416 | 71 | 283 | 3.5 | 5.2 | 0.00 | 0.00 | 0.00 | 80 | 1011.6 |
| 20260905024917 | 71 | 283 | 2.6 | 4.3 | 0.00 | 0.00 | 0.00 | 80 | 1011.6 |
| 20260905024416 | 71 | 283 | 3.5 | 4.3 | 0.00 | 0.00 | 0.00 | 79 | 1011.6 |
| 20260905023917 | 71 | 260 | 4.3 | 6.1 | 0.00 | 0.00 | 0.00 | 79 | 1011.6 |
| 20260905023417 | 71 | 283 | 3.5 | 6.1 | 0.00 | 0.00 | 0.00 | 78 | 1011.7 |
| 20260905022917 | 72 | 283 | 4.3 | 6.1 | 0.00 | 0.00 | 0.00 | 78 | 1011.6 |
| 20260905022417 | 72 | 283 | 3.5 | 5.2 | 0.00 | 0.00 | 0.00 | 77 | 1011.7 |
| 20260905021917 | 72 | 305 | 0.9 | 1.7 | 0.00 | 0.00 | 0.00 | 76 | 1011.7 |
| 20260905021417 | 72 | 260 | 2.6 | 4.3 | 0.00 | 0.00 | 0.00 | 76 | 1011.7 |
| 20260905020917 | 73 | 283 | 2.6 | 3.5 | 0.00 | 0.00 | 0.00 | 75 | 1011.6 |
| 20260905020417 | 73 | 260 | 1.7 | 3.5 | 0.00 | 0.00 | 0.00 | 74 | 1011.6 |
| 20260905015917 | 74 | 283 | 3.5 | 6.1 | 0.00 | 0.00 | 0.00 | 73 | 1011.6 |
| 20260905015417 | 74 | 260 | 4.3 | 6.1 | 0.00 | 0.00 | 0.00 | 72 | 1011.7 |
| 20260905014916 | 74 | 260 | 3.5 | 5.2 | 0.00 | 0.00 | 0.00 | 72 | 1011.7 |
| 20260905014417 | 75 | 305 | 1.7 | 3.5 | 0.00 | 0.00 | 0.00 | 71 | 1011.6 |
| 20260905013916 | 75 | 328 | 3.5 | 7.0 | 0.00 | 0.00 | 0.00 | 70 | 1011.7 |
| 20260905013416 | 75 | 305 | 3.5 | 5.2 | 0.00 | 0.00 | 0.00 | 70 | 1011.7 |
| 20260905012937 | 75 | 305 | 3.5 | 5.2 | 0.00 | 0.00 | 0.00 | 70 | 1011.8 |
| 20260905012417 | 76 | 283 | 4.3 | 7.0 | 0.00 | 0.00 | 0.00 | 69 | 1011.7 |
| 20260905011937 | 76 | 305 | 3.5 | 5.2 | 0.00 | 0.00 | 0.00 | 68 | 1011.8 |
| 20260905011417 | 76 | 260 | 3.5 | 6.1 | 0.00 | 0.00 | 0.00 | 68 | 1011.7 |
| 20260905010917 | 77 | 260 | 4.3 | 7.8 | 0.00 | 0.00 | 0.00 | 68 | 1011.8 |
| 20260905010416 | 77 | 260 | 4.3 | 7.8 | 0.00 | 0.00 | 0.00 | 67 | 1011.8 |
| 20260905005917 | 77 | 283 | 3.5 | 5.2 | 0.00 | 0.00 | 0.00 | 66 | 1011.8 |
| 20260905005416 | 78 | 283 | 4.3 | 8.7 | 0.00 | 0.00 | 0.00 | 64 | 1011.9 |
| 20260905004937 | 79 | 283 | 2.6 | 5.2 | 0.00 | 0.00 | 0.00 | 61 | 1011.8 |
| 20260905004437 | 79 | 260 | 1.7 | 3.5 | 0.00 | 0.00 | 0.00 | 58 | 1011.8 |
| 20260905003917 | 78 | 148 | 0.9 | 2.6 | 0.00 | 0.00 | 0.00 | 57 | 1011.8 |
| 20260905003416 | 79 | 170 | 1.7 | 4.3 | 0.00 | 0.00 | 0.00 | 56 | 1011.9 |
| 20260905002916 | 79 | 170 | 0.9 | 2.6 | 0.00 | 0.00 | 0.00 | 56 | 1011.9 |
| 20260905002416 | 79 | 148 | 1.7 | 3.5 | 0.00 | 0.00 | 0.00 | 55 | 1011.9 |
| 20260905001937 | 78 | 283 | 2.6 | 5.2 | 0.00 | 0.00 | 0.00 | 55 | 1011.8 |
| 20260905001437 | 78 | 283 | 3.5 | 6.1 | 0.00 | 0.00 | 0.00 | 54 | 1011.8 |
| 20260905000916 | 77 | 238 | 2.6 | 4.3 | 0.00 | 0.00 | 0.00 | 55 | 1011.8 |
| 20260905000417 | 77 | 193 | 3.5 | 5.2 | 0.00 | 0.00 | 0.00 | 55 | 1011.9 |
| 20260904235937 | 78 | 170 | 2.6 | 5.2 | 0.00 | 0.00 | 0.00 | 58 | 1011.9 |
| 20260904235417 | 78 | 148 | 3.5 | 5.2 | 0.00 | 0.00 | 0.00 | 57 | 1012.0 |
| 20260904234916 | 78 | 215 | 5.2 | 7.8 | 0.00 | 0.00 | 0.00 | 55 | 1012.1 |
| 20260904234436 | 78 | 215 | 2.6 | 4.3 | 0.00 | 0.00 | 0.00 | 55 | 1012.0 |
| 20260904233916 | 79 | 193 | 4.3 | 7.0 | 0.00 | 0.00 | 0.00 | 54 | 1012.0 |
| 20260904233416 | 79 | 148 | 2.6 | 5.2 | 0.00 | 0.00 | 0.00 | 54 | 1012.0 |
| 20260904232937 | 79 | 238 | 3.5 | 6.1 | 0.00 | 0.00 | 0.00 | 55 | 1011.9 |
| 20260904232416 | 80 | 125 | 0.9 | 0.9 | 0.00 | 0.00 | 0.00 | 54 | 1011.9 |
| 20260904231917 | 80 | 148 | 2.6 | 5.2 | 0.00 | 0.00 | 0.00 | 54 | 1012.0 |
| 20260904231416 | 79 | 215 | 2.6 | 5.2 | 0.00 | 0.00 | 0.00 | 54 | 1011.9 |
| 20260904230936 | 79 | 170 | 1.7 | 3.5 | 0.00 | 0.00 | 0.00 | 54 | 1012.0 |
| 20260904230416 | 80 | 148 | 4.3 | 6.1 | 0.00 | 0.00 | 0.00 | 53 | 1012.0 |
| 20260904225916 | 80 | 215 | 1.7 | 3.5 | 0.00 | 0.00 | 0.00 | 53 | 1012.0 |
| 20260904225417 | 80 | 215 | 3.5 | 5.2 | 0.00 | 0.00 | 0.00 | 53 | 1012.1 |
| 20260904224917 | 80 | 215 | 2.6 | 4.3 | 0.00 | 0.00 | 0.00 | 54 | 1012.1 |
| 20260904224416 | 80 | 148 | 1.7 | 3.5 | 0.00 | 0.00 | 0.00 | 54 | 1012.2 |
| 20260904223917 | 80 | 148 | 4.3 | 5.2 | 0.00 | 0.00 | 0.00 | 53 | 1012.2 |
| 20260904223416 | 80 | 148 | 0.9 | 3.5 | 0.00 | 0.00 | 0.00 | 54 | 1012.2 |
| 20260904222916 | 80 | 170 | 4.3 | 5.2 | 0.00 | 0.00 | 0.00 | 54 | 1012.1 |
| 20260904222416 | 79 | 215 | 1.7 | 3.5 | 0.00 | 0.00 | 0.00 | 55 | 1012.2 |
| 20260904221916 | 80 | 283 | 4.3 | 7.0 | 0.00 | 0.00 | 0.00 | 55 | 1012.2 |
| 20260904221436 | 80 | 215 | 4.3 | 6.1 | 0.00 | 0.00 | 0.00 | 55 | 1012.2 |
| 20260904220916 | 80 | 193 | 2.6 | 6.1 | 0.00 | 0.00 | 0.00 | 57 | 1012.2 |
| 20260904220416 | 80 | 238 | 2.6 | 4.3 | 0.00 | 0.00 | 0.00 | 58 | 1012.3 |
| 20260904215936 | 80 | 170 | 3.5 | 4.3 | 0.00 | 0.00 | 0.00 | 58 | 1012.2 |
| 20260904215416 | 80 | 148 | 1.7 | 2.6 | 0.00 | 0.00 | 0.00 | 57 | 1012.2 |
| 20260904214916 | 80 | 125 | 3.5 | 7.0 | 0.00 | 0.00 | 0.00 | 57 | 1012.3 |
| 20260904214416 | 79 | 148 | 2.6 | 3.5 | 0.00 | 0.00 | 0.00 | 59 | 1012.3 |
| 20260904213916 | 79 | 238 | 3.5 | 5.2 | 0.00 | 0.00 | 0.00 | 59 | 1012.4 |
| 20260904213416 | 80 | 125 | 3.5 | 6.1 | 0.00 | 0.00 | 0.00 | 59 | 1012.4 |
| 20260904212916 | 80 | 170 | 2.6 | 4.3 | 0.00 | 0.00 | 0.00 | 58 | 1012.4 |
| 20260904212416 | 80 | 170 | 3.5 | 5.2 | 0.00 | 0.00 | 0.00 | 58 | 1012.4 |
| 20260904211957 | 80 | 170 | 4.3 | 7.0 | 0.00 | 0.00 | 0.00 | 59 | 1012.4 |
| 20260904211416 | 80 | 238 | 4.3 | 7.8 | 0.00 | 0.00 | 0.00 | 59 | 1012.4 |
| 20260904210916 | 79 | 283 | 2.6 | 4.3 | 0.00 | 0.00 | 0.00 | 59 | 1012.3 |
| 20260904210416 | 79 | 260 | 3.5 | 5.2 | 0.00 | 0.00 | 0.00 | 59 | 1012.4 |
| 20260904205916 | 80 | 215 | 4.3 | 7.0 | 0.00 | 0.00 | 0.00 | 58 | 1012.5 |
| 20260904205416 | 80 | 260 | 2.6 | 3.5 | 0.00 | 0.00 | 0.00 | 60 | 1012.4 |
| 20260904204916 | 79 | 170 | 1.7 | 3.5 | 0.00 | 0.00 | 0.00 | 60 | 1012.5 |
| 20260904204416 | 80 | 238 | 4.3 | 8.7 | 0.00 | 0.00 | 0.00 | 59 | 1012.6 |
| 20260904203916 | 80 | 238 | 3.5 | 7.0 | 0.00 | 0.00 | 0.00 | 59 | 1012.6 |
| 20260904203416 | 80 | 148 | 3.5 | 6.1 | 0.00 | 0.00 | 0.00 | 59 | 1012.6 |
| 20260904202916 | 79 | 238 | 4.3 | 7.8 | 0.00 | 0.00 | 0.00 | 58 | 1012.6 |
| 20260904202416 | 79 | 148 | 2.6 | 4.3 | 0.00 | 0.00 | 0.00 | 59 | 1012.6 |
| 20260904201916 | 79 | 125 | 5.2 | 6.1 | 0.00 | 0.00 | 0.00 | 58 | 1012.8 |
| 20260904201416 | 79 | 58 | 0.9 | 2.6 | 0.00 | 0.00 | 0.00 | 60 | 1012.9 |
| 20260904200916 | 77 | 103 | 1.7 | 2.6 | 0.00 | 0.00 | 0.00 | 61 | 1012.8 |
| 20260904200436 | 78 | 125 | 3.5 | 5.2 | 0.00 | 0.00 | 0.00 | 61 | 1012.9 |
| 20260904195916 | 78 | 148 | 3.5 | 5.2 | 0.00 | 0.00 | 0.00 | 61 | 1013.0 |
| 20260904195416 | 78 | 148 | 7.0 | 9.6 | 0.00 | 0.00 | 0.00 | 61 | 1013.0 |
| 20260904194916 | 78 | 125 | 2.6 | 5.2 | 0.00 | 0.00 | 0.00 | 60 | 1013.0 |
| 20260904194416 | 77 | 125 | 2.6 | 4.3 | 0.00 | 0.00 | 0.00 | 62 | 1013.0 |
| 20260904193916 | 77 | 125 | 3.5 | 5.2 | 0.00 | 0.00 | 0.00 | 60 | 1013.0 |
| 20260904193416 | 78 | 148 | 2.6 | 4.3 | 0.00 | 0.00 | 0.00 | 60 | 1013.2 |
| 20260904192916 | 77 | 0.0 | 0.0 | 0.00 | 0.00 | 0.00 | 62 | 1013.2 | |
| 20260904192416 | 78 | 125 | 1.7 | 2.6 | 0.00 | 0.00 | 0.00 | 61 | 1013.2 |
| 20260904191916 | 78 | 103 | 1.7 | 5.2 | 0.00 | 0.00 | 0.00 | 61 | 1013.4 |
| 20260904191416 | 77 | 148 | 3.5 | 5.2 | 0.00 | 0.00 | 0.00 | 64 | 1013.5 |
| 20260904190916 | 77 | 148 | 3.5 | 4.3 | 0.00 | 0.00 | 0.00 | 64 | 1013.6 |
| 20260904190416 | 77 | 148 | 1.7 | 2.6 | 0.00 | 0.00 | 0.00 | 65 | 1013.6 |
| 20260904185916 | 77 | 170 | 3.5 | 6.1 | 0.00 | 0.00 | 0.00 | 66 | 1013.7 |
| 20260904185416 | 76 | 238 | 1.7 | 2.6 | 0.00 | 0.00 | 0.00 | 65 | 1013.8 |
| 20260904184916 | 76 | 148 | 5.2 | 10.4 | 0.00 | 0.00 | 0.00 | 65 | 1013.8 |
| 20260904184416 | 77 | 170 | 1.7 | 2.6 | 0.00 | 0.00 | 0.00 | 64 | 1013.8 |
| 20260904183916 | 77 | 125 | 4.3 | 8.7 | 0.00 | 0.00 | 0.00 | 64 | 1013.8 |
| 20260904183416 | 76 | 148 | 3.5 | 5.2 | 0.00 | 0.00 | 0.00 | 65 | 1013.9 |
| 20260904182916 | 77 | 148 | 4.3 | 7.0 | 0.00 | 0.00 | 0.00 | 64 | 1013.8 |
| 20260904182416 | 77 | 148 | 7.0 | 12.2 | 0.00 | 0.00 | 0.00 | 62 | 1013.9 |
| 20260904181956 | 77 | 148 | 1.7 | 5.2 | 0.00 | 0.00 | 0.00 | 63 | 1013.8 |
| 20260904181416 | 77 | 238 | 2.6 | 4.3 | 0.00 | 0.00 | 0.00 | 64 | 1013.7 |
| 20260904180916 | 76 | 215 | 0.9 | 1.7 | 0.00 | 0.00 | 0.00 | 66 | 1013.8 |
| 20260904180416 | 75 | 125 | 3.5 | 5.2 | 0.00 | 0.00 | 0.00 | 64 | 1013.8 |
| 20260904175916 | 75 | 103 | 1.7 | 4.3 | 0.00 | 0.00 | 0.00 | 64 | 1013.9 |
| 20260904175416 | 76 | 125 | 3.5 | 5.2 | 0.00 | 0.00 | 0.00 | 65 | 1013.9 |
| 20260904174916 | 76 | 125 | 3.5 | 4.3 | 0.00 | 0.00 | 0.00 | 65 | 1013.9 |
| 20260904174416 | 76 | 148 | 3.5 | 5.2 | 0.00 | 0.00 | 0.00 | 65 | 1013.9 |
| 20260904173916 | 76 | 215 | 2.6 | 5.2 | 0.00 | 0.00 | 0.00 | 65 | 1013.9 |
| 20260904173416 | 75 | 238 | 3.5 | 6.1 | 0.00 | 0.00 | 0.00 | 66 | 1013.8 |
| 20260904172916 | 75 | 0.0 | 0.9 | 0.00 | 0.00 | 0.00 | 67 | 1013.8 | |
| 20260904172416 | 75 | 103 | 1.7 | 3.5 | 0.00 | 0.00 | 0.00 | 66 | 1013.8 |
| 20260904171916 | 75 | 170 | 2.6 | 5.2 | 0.00 | 0.00 | 0.00 | 67 | 1013.8 |
| 20260904171436 | 75 | 148 | 4.3 | 7.0 | 0.00 | 0.00 | 0.00 | 68 | 1013.8 |
| 20260904170936 | 74 | 148 | 0.9 | 2.6 | 0.00 | 0.00 | 0.00 | 69 | 1013.7 |
| 20260904170416 | 74 | 170 | 0.9 | 2.6 | 0.00 | 0.00 | 0.00 | 68 | 1013.7 |
| 20260904165936 | 75 | 148 | 3.5 | 7.0 | 0.00 | 0.00 | 0.00 | 68 | 1013.7 |
| 20260904165416 | 74 | 170 | 1.7 | 2.6 | 0.00 | 0.00 | 0.00 | 69 | 1013.6 |
| 20260904164916 | 73 | 148 | 3.5 | 6.1 | 0.00 | 0.00 | 0.00 | 71 | 1013.6 |
| 20260904164416 | 73 | 125 | 4.3 | 6.1 | 0.00 | 0.00 | 0.00 | 71 | 1013.5 |
| 20260904163916 | 73 | 260 | 1.7 | 2.6 | 0.00 | 0.00 | 0.00 | 71 | 1013.5 |
| 20260904163416 | 73 | 148 | 1.7 | 3.5 | 0.00 | 0.00 | 0.00 | 71 | 1013.4 |
| 20260904162916 | 73 | 0.0 | 0.9 | 0.00 | 0.00 | 0.00 | 72 | 1013.3 | |
| 20260904162416 | 73 | 125 | 2.6 | 5.2 | 0.00 | 0.00 | 0.00 | 71 | 1013.4 |
| 20260904161915 | 73 | 125 | 2.6 | 3.5 | 0.00 | 0.00 | 0.00 | 73 | 1013.3 |
| 20260904161416 | 72 | 80 | 1.7 | 2.6 | 0.00 | 0.00 | 0.00 | 73 | 1013.3 |
| 20260904160916 | 72 | 0.0 | 0.9 | 0.00 | 0.00 | 0.00 | 73 | 1013.3 | |
| 20260904160416 | 72 | 125 | 3.5 | 4.3 | 0.00 | 0.00 | 0.00 | 74 | 1013.3 |
| 20260904155916 | 72 | 0.0 | 0.9 | 0.00 | 0.00 | 0.00 | 76 | 1013.1 | |
| 20260904155415 | 72 | 125 | 0.9 | 1.7 | 0.00 | 0.00 | 0.00 | 77 | 1013.2 |
| 20260904154916 | 71 | 103 | 0.9 | 0.9 | 0.00 | 0.00 | 0.00 | 77 | 1013.2 |
| 20260904154456 | 71 | 0.0 | 0.9 | 0.00 | 0.00 | 0.00 | 78 | 1013.1 | |
| 20260904153936 | 71 | 125 | 1.7 | 3.5 | 0.00 | 0.00 | 0.00 | 78 | 1013.0 |
| 20260904153435 | 70 | 58 | 1.7 | 2.6 | 0.00 | 0.00 | 0.00 | 80 | 1013.1 |
| 20260904152936 | 70 | 58 | 2.6 | 3.5 | 0.00 | 0.00 | 0.00 | 80 | 1013.1 |
| 20260904152416 | 69 | 148 | 1.7 | 3.5 | 0.00 | 0.00 | 0.00 | 81 | 1013.2 |
| 20260904151916 | 69 | 103 | 2.6 | 3.5 | 0.00 | 0.00 | 0.00 | 82 | 1013.2 |
| 20260904151420 | 68 | 125 | 3.5 | 5.2 | 0.00 | 0.00 | 0.00 | 82 | 1013.2 |
| 20260904150915 | 68 | 148 | 1.7 | 7.0 | 0.00 | 0.00 | 0.00 | 82 | 1013.2 |
| 20260904150415 | 68 | 125 | 2.6 | 4.3 | 0.00 | 0.00 | 0.00 | 83 | 1013.1 |
| 20260904145916 | 68 | 103 | 2.6 | 4.3 | 0.00 | 0.00 | 0.00 | 83 | 1013.1 |
| 20260904145415 | 68 | 125 | 2.6 | 2.6 | 0.00 | 0.00 | 0.00 | 84 | 1013.0 |
| 20260904144915 | 67 | 103 | 2.6 | 3.5 | 0.00 | 0.00 | 0.00 | 85 | 1013.0 |
| 20260904144416 | 67 | 148 | 2.6 | 4.3 | 0.00 | 0.00 | 0.00 | 86 | 1013.0 |
| 20260904143915 | 66 | 125 | 2.6 | 4.3 | 0.00 | 0.00 | 0.00 | 86 | 1012.9 |
| 20260904143455 | 66 | 80 | 2.6 | 3.5 | 0.00 | 0.00 | 0.00 | 87 | 1012.9 |
| 20260904142915 | 66 | 80 | 1.7 | 4.3 | 0.00 | 0.00 | 0.00 | 88 | 1012.9 |
| 20260904142415 | 65 | 80 | 0.9 | 4.3 | 0.00 | 0.00 | 0.00 | 88 | 1012.8 |
| 20260904141915 | 65 | 58 | 1.7 | 2.6 | 0.00 | 0.00 | 0.00 | 89 | 1012.7 |
| 20260904141416 | 65 | 58 | 1.7 | 2.6 | 0.00 | 0.00 | 0.00 | 89 | 1012.7 |
| 20260904140916 | 64 | 0.0 | 0.9 | 0.00 | 0.00 | 0.00 | 89 | 1012.6 | |
| 20260904140435 | 64 | 0.0 | 0.9 | 0.00 | 0.00 | 0.00 | 89 | 1012.6 | |
| 20260904135915 | 64 | 125 | 0.9 | 1.7 | 0.00 | 0.00 | 0.00 | 89 | 1012.5 |
| 20260904135416 | 64 | 0.0 | 0.9 | 0.00 | 0.00 | 0.00 | 89 | 1012.4 | |
| 20260904134915 | 64 | 0.0 | 0.0 | 0.00 | 0.00 | 0.00 | 89 | 1012.4 | |
| 20260904134436 | 64 | 0.0 | 0.9 | 0.00 | 0.00 | 0.00 | 89 | 1012.4 | |
| 20260904133915 | 64 | 125 | 0.9 | 2.6 | 0.00 | 0.00 | 0.00 | 89 | 1012.4 |
| 20260904133415 | 64 | 125 | 0.9 | 1.7 | 0.00 | 0.00 | 0.00 | 89 | 1012.4 |
| 20260904132936 | 64 | 0.0 | 0.0 | 0.00 | 0.00 | 0.00 | 89 | 1012.4 | |
| 20260904132415 | 64 | 125 | 1.7 | 2.6 | 0.00 | 0.00 | 0.00 | 90 | 1012.4 |
| 20260904131935 | 64 | 0.0 | 0.9 | 0.00 | 0.00 | 0.00 | 90 | 1012.4 | |
| 20260904131416 | 64 | 0.0 | 0.9 | 0.00 | 0.00 | 0.00 | 90 | 1012.5 | |
| 20260904130915 | 64 | 103 | 0.9 | 0.9 | 0.00 | 0.00 | 0.00 | 89 | 1012.4 |
| 20260904130415 | 64 | 80 | 0.9 | 0.9 | 0.00 | 0.00 | 0.00 | 90 | 1012.4 |
| 20260904125915 | 64 | 80 | 0.9 | 1.7 | 0.00 | 0.00 | 0.00 | 90 | 1012.3 |
| 20260904125415 | 64 | 80 | 0.9 | 1.7 | 0.00 | 0.00 | 0.00 | 90 | 1012.3 |
| 20260904124915 | 64 | 80 | 0.9 | 1.7 | 0.00 | 0.00 | 0.00 | 90 | 1012.2 |
| 20260904124415 | 64 | 0.0 | 1.7 | 0.00 | 0.00 | 0.00 | 90 | 1012.2 | |
| 20260904123915 | 64 | 125 | 0.9 | 1.7 | 0.00 | 0.00 | 0.00 | 90 | 1012.2 |
| 20260904123416 | 64 | 0.0 | 0.0 | 0.00 | 0.00 | 0.00 | 90 | 1012.0 | |
| 20260904122915 | 64 | 0.0 | 0.9 | 0.00 | 0.00 | 0.00 | 90 | 1012.1 | |
| 20260904122415 | 64 | 0.0 | 0.9 | 0.00 | 0.00 | 0.00 | 90 | 1012.0 | |
| 20260904121915 | 64 | 0.0 | 0.9 | 0.00 | 0.00 | 0.00 | 90 | 1012.0 | |
| 20260904121415 | 64 | 125 | 1.7 | 3.5 | 0.00 | 0.00 | 0.00 | 90 | 1012.0 |
| 20260904120915 | 64 | 0.0 | 0.0 | 0.00 | 0.00 | 0.00 | 90 | 1012.0 | |
| 20260904120416 | 64 | 0.0 | 0.9 | 0.00 | 0.00 | 0.00 | 90 | 1011.9 | |
| 20260904115915 | 64 | 0.0 | 0.0 | 0.00 | 0.00 | 0.00 | 90 | 1012.0 | |
| 20260904115415 | 65 | 0.0 | 0.0 | 0.00 | 0.00 | 0.00 | 90 | 1012.1 | |
| 20260904114935 | 65 | 125 | 0.9 | 1.7 | 0.00 | 0.00 | 0.00 | 90 | 1012.1 |
| 20260904114415 | 65 | 125 | 1.7 | 1.7 | 0.00 | 0.00 | 0.00 | 90 | 1012.0 |
| 20260904113915 | 65 | 0.0 | 0.9 | 0.00 | 0.00 | 0.00 | 90 | 1012.0 | |
| 20260904113435 | 65 | 0.0 | 0.9 | 0.00 | 0.00 | 0.00 | 90 | 1012.0 | |
| 20260904113015 | 65 | 0.0 | 0.0 | 0.00 | 0.00 | 0.00 | 90 | 1012.0 | |
| 20260904112455 | 65 | 125 | 0.9 | 0.9 | 0.00 | 0.00 | 0.00 | 90 | 1012.0 |
| 20260904111915 | 65 | 0.0 | 0.9 | 0.00 | 0.00 | 0.00 | 90 | 1012.0 | |
| 20260904111417 | 65 | 0.0 | 0.0 | 0.00 | 0.00 | 0.00 | 90 | 1012.0 | |
| 20260904110938 | 65 | 0.0 | 0.0 | 0.00 | 0.00 | 0.00 | 90 | 1012.0 | |
| 20260904110417 | 65 | 0.0 | 0.0 | 0.00 | 0.00 | 0.00 | 90 | 1012.0 | |
| 20260904105915 | 65 | 0.0 | 0.0 | 0.00 | 0.00 | 0.00 | 90 | 1012.0 | |
| 20260904105417 | 65 | 0.0 | 0.0 | 0.00 | 0.00 | 0.00 | 90 | 1012.0 | |
| 20260904104917 | 65 | 0.0 | 0.0 | 0.00 | 0.00 | 0.00 | 90 | 1012.0 | |
| 20260904104437 | 65 | 0.0 | 0.0 | 0.00 | 0.00 | 0.00 | 90 | 1012.0 | |
| 20260904103935 | 65 | 0.0 | 0.0 | 0.00 | 0.00 | 0.00 | 90 | 1012.0 | |
| 20260904103417 | 65 | 0.0 | 0.0 | 0.00 | 0.00 | 0.00 | 90 | 1012.0 | |
| 20260904102917 | 65 | 0.0 | 0.0 | 0.00 | 0.00 | 0.00 | 90 | 1012.0 | |
| 20260904102417 | 65 | 0.0 | 0.9 | 0.00 | 0.00 | 0.00 | 90 | 1011.9 | |
| 20260904101917 | 65 | 0.0 | 0.0 | 0.00 | 0.00 | 0.00 | 90 | 1011.9 | |
| 20260904101417 | 65 | 0.0 | 0.0 | 0.00 | 0.00 | 0.00 | 90 | 1011.9 | |
| 20260904100937 | 65 | 0.0 | 0.0 | 0.00 | 0.00 | 0.00 | 90 | 1011.9 | |
| 20260904100417 | 65 | 0.0 | 0.0 | 0.00 | 0.00 | 0.00 | 90 | 1011.9 | |
| 20260904095917 | 65 | 0.0 | 0.0 | 0.00 | 0.00 | 0.00 | 91 | 1011.9 | |
| 20260904095457 | 65 | 0.0 | 0.0 | 0.00 | 0.00 | 0.00 | 91 | 1011.9 | |
| 20260904094917 | 65 | 0.0 | 0.0 | 0.00 | 0.00 | 0.00 | 90 | 1012.0 | |
| 20260904094417 | 65 | 0.0 | 0.0 | 0.00 | 0.00 | 0.00 | 91 | 1011.9 | |
| 20260904093917 | 65 | 0.0 | 0.0 | 0.00 | 0.00 | 0.00 | 91 | 1012.0 | |
| 20260904093417 | 64 | 0.0 | 0.0 | 0.00 | 0.00 | 0.00 | 91 | 1012.0 | |
| 20260904092917 | 65 | 0.0 | 0.0 | 0.00 | 0.00 | 0.00 | 91 | 1012.0 | |
| 20260904092417 | 65 | 0.0 | 0.0 | 0.00 | 0.00 | 0.00 | 91 | 1011.9 | |
| 20260904091917 | 65 | 0.0 | 0.0 | 0.00 | 0.00 | 0.00 | 92 | 1012.0 | |
| 20260904091417 | 64 | 0.0 | 0.0 | 0.00 | 0.00 | 0.00 | 92 | 1012.0 | |
| 20260904090917 | 64 | 0.0 | 0.0 | 0.00 | 0.00 | 0.00 | 92 | 1012.0 | |
| 20260904090417 | 64 | 0.0 | 0.0 | 0.00 | 0.00 | 0.00 | 92 | 1011.9 | |
| 20260904085917 | 64 | 0.0 | 0.0 | 0.00 | 0.00 | 0.00 | 92 | 1011.9 | |
| 20260904085417 | 64 | 0.0 | 0.0 | 0.00 | 0.00 | 0.00 | 92 | 1012.0 | |
| 20260904084917 | 63 | 0.0 | 0.0 | 0.00 | 0.00 | 0.00 | 91 | 1012.0 | |
| 20260904084417 | 64 | 0.0 | 0.0 | 0.00 | 0.00 | 0.00 | 92 | 1012.1 | |
| 20260904083917 | 64 | 0.0 | 0.0 | 0.00 | 0.00 | 0.00 | 91 | 1012.1 | |
| 20260904083417 | 64 | 0.0 | 0.0 | 0.00 | 0.00 | 0.00 | 91 | 1012.1 | |
| 20260904082917 | 64 | 0.0 | 0.0 | 0.00 | 0.00 | 0.00 | 91 | 1012.1 | |
| 20260904082417 | 64 | 0.0 | 0.0 | 0.00 | 0.00 | 0.00 | 92 | 1012.1 | |
| 20260904081917 | 64 | 0.0 | 0.0 | 0.00 | 0.00 | 0.00 | 91 | 1012.2 | |
| 20260904081417 | 64 | 0.0 | 0.0 | 0.00 | 0.00 | 0.00 | 91 | 1012.1 | |
| 20260904080917 | 64 | 0.0 | 0.0 | 0.00 | 0.00 | 0.00 | 90 | 1012.1 | |
| 20260904080417 | 64 | 0.0 | 0.0 | 0.00 | 0.00 | 0.00 | 91 | 1012.1 | |
| 20260904075917 | 64 | 0.0 | 0.0 | 0.00 | 0.00 | 0.00 | 91 | 1012.2 | |
| 20260904075437 | 64 | 0.0 | 0.0 | 0.00 | 0.00 | 0.00 | 91 | 1012.1 | |
| 20260904074917 | 64 | 0.0 | 0.0 | 0.00 | 0.00 | 0.00 | 91 | 1012.2 | |
| 20260904074417 | 64 | 0.0 | 0.0 | 0.00 | 0.00 | 0.00 | 91 | 1012.2 |